| time (UTC) | temp F | wind direction | speed knots | gust knots | rain 1hr in | rain 24hr in | rain mn in | humidity % | barometer mb |
| 20260904223054 | 67 | 293 | 9.6 | 15.6 | 0.00 | 0.00 | 0.00 | 38 | 1014.8 |
| 20260904221550 | 69 | 307 | 10.4 | 16.5 | 0.00 | 0.00 | 0.00 | 36 | 1014.6 |
| 20260904220148 | 69 | 307 | 13.0 | 18.2 | 0.00 | 0.00 | 0.00 | 35 | 1014.3 |
| 20260904214545 | 70 | 299 | 12.2 | 20.0 | 0.00 | 0.00 | 0.00 | 35 | 1014.2 |
| 20260904213048 | 70 | 306 | 15.6 | 20.9 | 0.00 | 0.00 | 0.00 | 36 | 1014.1 |
| 20260904211540 | 69 | 284 | 10.4 | 18.2 | 0.00 | 0.00 | 0.00 | 37 | 1013.9 |
| 20260904210037 | 66 | 314 | 11.3 | 17.4 | 0.00 | 0.00 | 0.00 | 42 | 1013.9 |
| 20260904204537 | 65 | 301 | 11.3 | 16.5 | 0.00 | 0.00 | 0.00 | 43 | 1013.9 |
| 20260904203041 | 64 | 268 | 12.2 | 16.5 | 0.00 | 0.00 | 0.00 | 44 | 1013.7 |
| 20260904201537 | 63 | 307 | 8.7 | 17.4 | 0.00 | 0.00 | 0.00 | 45 | 1013.6 |
| 20260904200034 | 64 | 287 | 7.8 | 14.8 | 0.00 | 0.00 | 0.00 | 45 | 1013.4 |
| 20260904194530 | 64 | 265 | 7.8 | 13.9 | 0.00 | 0.00 | 0.00 | 46 | 1013.2 |
| 20260904193032 | 64 | 291 | 8.7 | 15.6 | 0.00 | 0.00 | 0.00 | 47 | 1013.0 |
| 20260904191534 | 63 | 277 | 9.6 | 14.8 | 0.00 | 0.00 | 0.00 | 48 | 1012.8 |
| 20260904190026 | 63 | 297 | 9.6 | 13.9 | 0.00 | 0.00 | 0.00 | 50 | 1012.7 |
| 20260904184526 | 62 | 302 | 7.0 | 12.2 | 0.00 | 0.00 | 0.00 | 51 | 1012.5 |
| 20260904183025 | 61 | 248 | 6.1 | 12.2 | 0.00 | 0.00 | 0.00 | 52 | 1012.4 |
| 20260904181523 | 61 | 267 | 7.0 | 11.3 | 0.00 | 0.00 | 0.00 | 52 | 1012.5 |
| 20260904180022 | 61 | 304 | 8.7 | 12.2 | 0.00 | 0.00 | 0.00 | 52 | 1012.3 |
| 20260904174526 | 60 | 295 | 7.0 | 12.2 | 0.00 | 0.00 | 0.00 | 53 | 1012.2 |
| 20260904173023 | 59 | 285 | 7.0 | 14.8 | 0.00 | 0.00 | 0.00 | 54 | 1012.1 |
| 20260904171530 | 59 | 302 | 7.0 | 14.8 | 0.00 | 0.00 | 0.00 | 54 | 1012.1 |
| 20260904170019 | 60 | 292 | 8.7 | 13.0 | 0.00 | 0.00 | 0.00 | 53 | 1011.9 |
| 20260904164520 | 61 | 300 | 8.7 | 11.3 | 0.00 | 0.00 | 0.00 | 52 | 1011.6 |
| 20260904163020 | 62 | 281 | 4.3 | 8.7 | 0.00 | 0.00 | 0.00 | 53 | 1011.4 |
| 20260904161518 | 60 | 303 | 5.2 | 8.7 | 0.00 | 0.00 | 0.00 | 55 | 1011.6 |
| 20260904160017 | 62 | 303 | 6.1 | 9.6 | 0.00 | 0.00 | 0.00 | 52 | 1011.3 |
| 20260904154514 | 66 | 74 | 0.9 | 5.2 | 0.00 | 0.00 | 0.00 | 42 | 1010.7 |
| 20260904153011 | 63 | 53 | 3.5 | 5.2 | 0.00 | 0.00 | 0.00 | 46 | 1010.2 |
| 20260904151509 | 63 | 105 | 3.5 | 7.0 | 0.00 | 0.00 | 0.00 | 47 | 1010.4 |
| 20260904150009 | 63 | 126 | 5.2 | 8.7 | 0.00 | 0.00 | 0.00 | 45 | 1010.4 |
| 20260904144506 | 62 | 153 | 1.7 | 5.2 | 0.00 | 0.00 | 0.00 | 50 | 1010.5 |
| 20260904143001 | 57 | 93 | 2.6 | 4.3 | 0.00 | 0.00 | 0.00 | 56 | 1010.4 |
| 20260904140055 | 53 | 52 | 0.0 | 1.7 | 0.00 | 0.00 | 0.00 | 69 | 1010.3 |
| 20260904134551 | 51 | 229 | 0.0 | 0.0 | 0.00 | 0.00 | 0.00 | 71 | 1010.5 |
| 20260904133049 | 50 | 229 | 0.0 | 0.9 | 0.00 | 0.00 | 0.00 | 76 | 1010.4 |
| 20260904131551 | 48 | 229 | 0.0 | 0.9 | 0.00 | 0.00 | 0.00 | 73 | 1010.4 |
| 20260904130048 | 50 | 79 | 0.0 | 1.7 | 0.00 | 0.00 | 0.00 | 71 | 1010.2 |
| 20260904124558 | 49 | 290 | 0.0 | 0.9 | 0.00 | 0.00 | 0.00 | 71 | 1010.2 |
| 20260904123046 | 49 | 342 | 0.0 | 0.9 | 0.00 | 0.00 | 0.00 | 72 | 1010.4 |
| 20260904121545 | 50 | 28 | 0.0 | 0.9 | 0.00 | 0.00 | 0.00 | 70 | 1010.3 |
| 20260904120048 | 49 | 82 | 0.0 | 0.0 | 0.00 | 0.00 | 0.00 | 74 | 1010.5 |
| 20260904114546 | 49 | 82 | 0.0 | 0.0 | 0.00 | 0.00 | 0.00 | 75 | 1010.2 |
| 20260904113049 | 50 | 82 | 0.0 | 0.9 | 0.00 | 0.00 | 0.00 | 73 | 1010.4 |
| 20260904111541 | 49 | 77 | 0.0 | 0.9 | 0.00 | 0.00 | 0.00 | 74 | 1010.4 |
| 20260904110040 | 50 | 39 | 0.0 | 0.9 | 0.00 | 0.00 | 0.00 | 71 | 1010.4 |
| 20260904104538 | 49 | 39 | 0.0 | 3.5 | 0.00 | 0.00 | 0.00 | 71 | 1010.5 |
| 20260904103041 | 48 | 12 | 0.0 | 1.7 | 0.00 | 0.00 | 0.00 | 72 | 1010.8 |
| 20260904101535 | 47 | 76 | 0.0 | 0.0 | 0.00 | 0.00 | 0.00 | 74 | 1010.9 |
| 20260904100034 | 46 | 76 | 0.0 | 0.0 | 0.00 | 0.00 | 0.00 | 76 | 1010.8 |
| 20260904094535 | 46 | 76 | 0.0 | 0.9 | 0.00 | 0.00 | 0.00 | 76 | 1010.9 |
| 20260904093030 | 46 | 77 | 0.0 | 0.0 | 0.00 | 0.00 | 0.00 | 75 | 1011.2 |
| 20260904091527 | 47 | 111 | 0.0 | 0.0 | 0.00 | 0.00 | 0.00 | 73 | 1011.1 |
| 20260904090024 | 48 | 111 | 0.0 | 0.9 | 0.00 | 0.00 | 0.00 | 72 | 1011.3 |
| 20260904084522 | 48 | 66 | 0.0 | 0.0 | 0.00 | 0.00 | 0.00 | 73 | 1011.4 |
| 20260904083022 | 49 | 65 | 0.0 | 1.7 | 0.00 | 0.00 | 0.00 | 70 | 1011.5 |
| 20260904081520 | 49 | 65 | 0.0 | 0.0 | 0.00 | 0.00 | 0.00 | 70 | 1011.4 |
| 20260904080017 | 51 | 65 | 0.0 | 0.9 | 0.00 | 0.00 | 0.00 | 67 | 1011.5 |
| 20260904074516 | 50 | 13 | 0.0 | 0.9 | 0.00 | 0.01 | 0.00 | 70 | 1011.8 |
| 20260904073015 | 50 | 13 | 0.0 | 0.9 | 0.00 | 0.01 | 0.00 | 70 | 1011.6 |
| 20260904071514 | 50 | 13 | 0.0 | 0.0 | 0.00 | 0.01 | 0.00 | 71 | 1011.8 |
| 20260904070014 | 51 | 13 | 0.0 | 0.0 | 0.00 | 0.01 | 0.00 | 67 | 1011.7 |
| 20260904064511 | 50 | 13 | 0.0 | 0.0 | 0.00 | 0.01 | 0.00 | 68 | 1011.6 |
| 20260904063010 | 51 | 13 | 0.0 | 0.0 | 0.00 | 0.01 | 0.00 | 67 | 1011.9 |
| 20260904061507 | 51 | 304 | 0.0 | 0.9 | 0.00 | 0.01 | 0.00 | 67 | 1011.9 |
| 20260904060006 | 52 | 12 | 0.0 | 0.9 | 0.00 | 0.01 | 0.00 | 66 | 1012.1 |
| 20260904054507 | 54 | 94 | 0.0 | 0.9 | 0.00 | 0.01 | 0.01 | 63 | 1012.3 |
| 20260904053003 | 54 | 94 | 0.0 | 0.9 | 0.00 | 0.01 | 0.01 | 61 | 1012.4 |
| 20260904051506 | 54 | 125 | 0.0 | 1.7 | 0.00 | 0.01 | 0.01 | 62 | 1012.3 |
| 20260904050002 | 54 | 61 | 0.0 | 0.0 | 0.00 | 0.01 | 0.01 | 63 | 1012.2 |
| 20260904044502 | 54 | 45 | 0.0 | 0.9 | 0.00 | 0.01 | 0.01 | 62 | 1012.1 |
| 20260904043000 | 51 | 300 | 0.0 | 0.9 | 0.00 | 0.01 | 0.01 | 65 | 1011.9 |
| 20260904041605 | 52 | 300 | 0.0 | 1.7 | 0.00 | 0.01 | 0.01 | 62 | 1012.1 |
| 20260904041500 | 53 | 300 | 0.0 | 1.7 | 0.00 | 0.01 | 0.01 | 62 | 1012.1 |
| 20260904040100 | 52 | 26 | 0.9 | 0.9 | 0.00 | 0.01 | 0.01 | 62 | 1012.2 |
| 20260904034559 | 51 | 337 | 0.0 | 0.9 | 0.00 | 0.01 | 0.01 | 64 | 1012.2 |
| 20260904033101 | 50 | 283 | 0.0 | 0.9 | 0.00 | 0.01 | 0.01 | 65 | 1012.3 |
| 20260904031557 | 53 | 16 | 0.0 | 0.0 | 0.00 | 0.01 | 0.01 | 59 | 1012.2 |
| 20260904030054 | 52 | 16 | 0.0 | 1.7 | 0.00 | 0.01 | 0.01 | 61 | 1012.1 |
| 20260904024555 | 54 | 39 | 0.9 | 1.7 | 0.00 | 0.01 | 0.01 | 58 | 1012.1 |
| 20260904023054 | 55 | 25 | 0.0 | 0.9 | 0.00 | 0.01 | 0.01 | 57 | 1012.0 |
| 20260904021556 | 57 | 328 | 0.9 | 2.6 | 0.00 | 0.01 | 0.01 | 54 | 1011.7 |
| 20260904020049 | 59 | 240 | 0.0 | 3.5 | 0.00 | 0.01 | 0.01 | 50 | 1011.6 |
| 20260904014623 | 61 | 290 | 3.5 | 5.2 | 0.00 | 0.01 | 0.01 | 48 | 1011.5 |
| 20260904013055 | 65 | 256 | 0.9 | 3.5 | 0.00 | 0.01 | 0.01 | 42 | 1011.8 |
| 20260904011547 | 67 | 246 | 0.0 | 1.7 | 0.00 | 0.01 | 0.01 | 39 | 1011.7 |
| 20260904010046 | 68 | 242 | 1.7 | 6.1 | 0.00 | 0.01 | 0.01 | 37 | 1011.4 |
| 20260904004543 | 69 | 283 | 2.6 | 6.1 | 0.00 | 0.07 | 0.01 | 35 | 1011.3 |
| 20260904003042 | 70 | 248 | 3.5 | 9.6 | 0.00 | 0.07 | 0.01 | 35 | 1011.4 |
| 20260904001542 | 70 | 303 | 4.3 | 9.6 | 0.00 | 0.07 | 0.01 | 34 | 1011.4 |
| 20260904000118 | 70 | 275 | 4.3 | 10.4 | 0.00 | 0.07 | 0.01 | 35 | 1011.2 |
| 20260903234538 | 70 | 285 | 7.0 | 12.2 | 0.00 | 0.07 | 0.01 | 36 | 1010.9 |
| 20260903233036 | 71 | 254 | 6.1 | 13.0 | 0.00 | 0.07 | 0.01 | 37 | 1011.0 |
| 20260903231536 | 72 | 237 | 7.0 | 12.2 | 0.00 | 0.07 | 0.01 | 37 | 1010.9 |
| 20260903230036 | 72 | 274 | 7.0 | 13.0 | 0.00 | 0.07 | 0.01 | 37 | 1010.8 |
| 20260903224544 | 72 | 258 | 5.2 | 11.3 | 0.00 | 0.07 | 0.01 | 38 | 1010.6 |